Hourly Weather Roundup
Issued by NWS Central Illinois

Home | Current Version | Previous Version | Text Only | Print | Product List | Glossary Off
Versions: 1 2 3 4 5 6 7 8 9 10 11 12 13 14 15 16 17 18 19 20 21 22 23 24 25 26 27 28 29 30 31 32 33 34 35 36 37 38 39 40 41 42 43 44 45 46 47 48 49 50

000
NZUS43 KILX 211110
HWRILX

Area Weather Roundup
National Weather Service Lincoln IL
500 AM CST WED FEB 21 2018

NOTE:  "FAIR" indicates few or no clouds below 12,000 feet, with
       no sigificant weather and/or obstructions to visibility.


CITY           SKY/WX    TMP DP  RH WIND       PRES   REMARKS
Bloomington    CLOUDY    28  26  92 N15       30.36R WCI  16
Champaign      FRZ RAIN  31  30  96 NW20      30.33R WCI  19
Danville       LGT SNOW  33  32  98 NW17G24   30.28R WCI  21
Decatur        CLOUDY    30  30 100 NW14G26   30.35R WCI  19
Effingham      MIX PCPN  33  33  99 NW10      30.36R WCI  25
Flora          RAIN      36  34  93 NW16      30.34R WCI  26
Galesburg      FAIR      23  19  84 NW13      30.44R WCI  11
Jacksonville   CLOUDY    25  21  86 NW7       30.41S WCI  17
Lacon          CLOUDY    26  22  85 N7        30.40R WCI  18
Lawrenceville  LGT RAIN  40  38  93 NW16      30.31R WCI  31
Litchfield     CLOUDY    28  26  95 NW8       30.38R WCI  19
$$


CITY           SKY/WX    TMP DP  RH WIND       PRES   REMARKS
Lincoln        CLOUDY    28  26  91 NW9       30.41R WCI  19
Macomb         MOCLDY    24  20  87 NW13      30.45R WCI  12
Mattoon        FRZ RAIN  32  31  96 N17G24    30.33R FOG     WCI  21
Mt Carmel AP   LGT RAIN  39  37  94 NW14G20   30.30R WCI  31
Olney-Noble AP RAIN      35  33  92 NW21      30.33S WCI  24
Paris AP       RAIN      33  32  96 N10G21    30.34R WCI  25
Peoria         FAIR      25  20  81 N10G18    30.41R WCI  15
Pontiac        CLOUDY    30  30  99 NW8       30.38R WCI  22
Rantoul        RAIN      33  32  95 N13       30.33R WCI  24
Robinson       RAIN      36  35  97 NW15      30.33R WCI  27
Springfield    MOCLDY    28  24  85 N12       30.39R WCI  18
Taylorville    CLOUDY    28  26  92 CALM      30.37S
$$

...REGIONAL REPORTS...


CITY           SKY/WX    TMP DP  RH WIND       PRES   REMARKS
Chicago O`Hare CLOUDY    30  23  75 NW16      30.35R WCI  19
Kankakee       CLOUDY    32  31  98 NW8       30.35R WCI  25
Moline         FAIR      22  14  71 NW13      30.45R WCI  10
Mount Sterling MOCLDY    23  19  86 NW6       30.42R WCI  16
Mount Vernon   LGT RAIN  34  32  92 VRB5      30.36R WCI  30
Pittsfield     CLOUDY    25  21  85 N6        30.43S WCI  18
Quincy         MOCLDY    23  19  85 N13       30.43R WCI  11
Rockford       CLOUDY    26  19  74 N10       30.42R WCI  16
$$


CITY           SKY/WX    TMP DP  RH WIND       PRES   REMARKS
Burlington     PTCLDY    21  14  74 N12       30.45R WCI   9
Cedar Rapids   FAIR      16   9  74 N17       30.47R WCI   0
Des Moines     CLEAR     13   6  74 N9        30.53R WCI   1
Kirksville     MOCLDY    19  17  92 N13       30.48R WCI   6
Ottumwa        PTCLDY    17  11  77 N15       30.50R WCI   2
St Louis       CLOUDY    29  27  92 N14       30.38R WCI  18
$$


CITY           SKY/WX    TMP DP  RH WIND       PRES   REMARKS
Terre Haute    LGT RAIN  37  36  96 NW8       30.31R WCI  31
Evansville     HVY RAIN  44  44 100 NW8       30.26S FOG
Indianapolis   LGT RAIN  43  41  93 N10       30.21R
Lafayette      LGT RAIN  36  35  96 N15       30.27R WCI  27
Madison        FAIR      20  13  74 N8        30.42R WCI  10
Milwaukee      CLOUDY    26  15  63 NW8       30.38R WCI  18
$$






USA.gov is the U.S. government's official web portal to all federal, state and local government web resources and services.